Starlink 30257

operational
NORAD ID: 57526 Int'l Des: 2023-115 Owner: SPXS Country: US Constellation: starlink
LEOCIRCULAR

About Starlink 30257

Description loading...

Live Position

Loading 3D Globe...

Upcoming Passes

Altitude History

Altitude vs Time

uPlot chart will show altitude changes over time

Two-Line Element Set

1 57526U 23115F 25260.25056819 .00002133 00000-0 17286-3 0 9994
2 57526 43.0028 227.2620 0001195 278.8214 81.2493 15.02549511116225
Epoch: Sep 17, 2025 • Age: 38 hours

Current Status

Altitude 560.5 km
Velocity 7.58 km/s
Sub-Earth Point -8.89°S, 116.93°E
Launch Date Aug 8, 2023
Age 2.1 years
Type internet

Technical Details

Classification Payload
Mass 730.00 kg
Dry Mass 700.00 kg
Total Mass 730.00 kg
Length 0.30 m
Diameter 4.10 m
Span 29.00 m
Shape Box + pan
Manufacturer SPXS
Bus Type Starlink V2M
Phase Status In Orbit
Owner/State SPXS/US

Large Constellations

Loading constellations...